Regional Weather Roundup
Issued by NWS

Home | Current Version | Previous Version | Graphics & Text | Print | Product List | Glossary On
Versions: 1 2 3 4 5 6 7 8 9 10 11 12 13 14 15 16 17 18 19 20 21 22 23 24 25 26 27 28 29 30 31 32 33 34 35 36 37 38 39 40 41 42 43 44 45 46 47 48 49 50
630
ASUS43 KBIS 091502
RWRND

NORTH DAKOTA REGIONAL WEATHER ROUNDUP
NATIONAL WEATHER SERVICE BISMARCK ND
900 AM CST TUE FEB 09 2016

NOTE: "FAIR" INDICATES FEW OR NO CLOUDS BELOW 12,000 FEET WITH NO
SIGNIFICANT WEATHER AND/OR OBSTRUCTIONS TO VISIBILITY.


NDZ001>003-009>011-017-091600-
NORTHWEST NORTH DAKOTA

CITY           SKY/WX    TMP DP  RH WIND       PRES   REMARKS
WILLISTON      CLOUDY    31  23  72 NW6       30.22R
MINOT          CLOUDY    26   9  48 SW12      30.20F WCI  16
MINOT AFB      PTCLDY    22  12  64 CALM      30.20F
$$

NDZ018>021-031>035-040>046-091600-
SOUTHWEST NORTH DAKOTA

CITY           SKY/WX    TMP DP  RH WIND       PRES   REMARKS
BISMARCK       CLOUDY    26  11  52 SW8       30.25F WCI  18
DICKINSON      CLOUDY    25  18  74 W3        30.16R
GARRISON         N/A     23  11  60 SW6       30.21F WCI  16
HETTINGER ARPT CLOUDY    26  17  68 SE5       30.20S
$$

NDZ004>008-012>016-024-026-027-054-091600-
NORTHEAST NORTH DAKOTA

CITY           SKY/WX    TMP DP  RH WIND       PRES   REMARKS
GRAND FORKS    CLOUDY    11   4  73 N14       30.30S WCI  -5
GRND FRKS AFB  CLOUDY    10   3  72 N10       30.29S WCI  -3
DEVILS LAKE    CLOUDY    15   9  76 CALM      30.26S
$$

NDZ022-023-025-028>030-036>039-047>053-091600-
SOUTHEAST NORTH DAKOTA

CITY           SKY/WX    TMP DP  RH WIND       PRES   REMARKS
FARGO          CLOUDY    11   4  73 N12       30.28S WCI  -3
JAMESTOWN      CLOUDY    17   9  70 NW7       30.24S WCI   8
$$





USA.gov is the U.S. government's official web portal to all federal, state and local government web resources and services.